Погода в Китале

Кения     1°00′47″N   35°00′13″E
темп.,
°C
ветер,
м/с
пор.,
м/с
влажн.,
%
обл.,
%
осадки,
мм/ч
давл.,
гПа
погр.,
м
27 ноября, сб
сб2700:00+16ссв2288100 1.2 101663
03:00+15зсз1290100 2.4 101558
06:00+13ссв119111 0.0 101611
09:00+20ссв12639 0.0 1016484
12:00+24с344593 0.1 10122205
15:00+21сз245496 0.2 1011427
18:00+20с236425 0.0 101197
21:00+16всв117396 0.1 101526
28 ноября, вс
вс2800:00+15с118293 0.1 101613
03:00+14ссв11896 0.1 101517
06:00+13ссв119262 0.0 101613
09:00+15с1291100 1.4 101890
12:00+22всв126231 0.5 10141074
15:00+23ссз345197 2.2 10101386
18:00+18вюв126898 0.1 101158
21:00+14всв11826 0.1 101517
29 ноября, пн
пн2900:00+14ссв118443 0.0 101611
03:00+13вюв118689 0.0 101411
06:00+14вюв118648 0.0 101536
09:00+20в115878 0.0 1015491
12:00+25ссз343992 0.0 10112220
15:00+25ссз223996 0.0 10091950
18:00+20св1259100 0.0 101036
21:00+16св017092 0.0 101430
30 ноября, вт
вт3000:00+16с1178100 0.1 101417
03:00+14св118746 0.1 101412
06:00+13с008940 0.0 101511
09:00+21св125994 0.0 1014611
12:00+25ссз343995 0.0 10112443
15:00+24ссз1243100 0.0 1008950
18:00+20св0156100 0.0 101033
21:00+17ю0163100 0.0 101325
1 декабря, ср
ср100:00+14всв117938 0.0 101411
03:00+13св118139 0.0 101312
06:00+13с0185100 0.0 101411
09:00+20св1258100 0.0 1014450
12:00+25сз2338100 0.0 10102403
15:00+20ссв355368 0.0 1010169
18:00+20ссз225712 0.0 100936
21:00+16ююв1161100 0.0 101312